Regional Weather Roundup
Issued by NWS

Home | Current Version | Previous Version | Graphics & Text | Print | Product List | Glossary On
Versions: 1 2 3 4 5 6 7 8 9 10 11 12 13 14 15 16 17 18 19 20 21 22 23 24 25 26 27 28 29 30 31 32 33 34 35 36 37 38 39 40 41 42 43 44 45 46 47 48 49 50
000
ASUS43 KMKX 291500
RWRWI

WISCONSIN REGIONAL WEATHER ROUNDUP
NATIONAL WEATHER SERVICE MILWAUKEE/SULLIVAN WI
1000 AM CDT FRI AUG 29 2014

NOTE: "FAIR" INDICATES FEW OR NO CLOUDS BELOW 12,000 FEET WITH NO
SIGNIFICANT WEATHER AND/OR OBSTRUCTIONS TO VISIBILITY.

WIZ001-002-006>008-014>016-023>028-291600-
NORTHWEST WISCONSIN

CITY           SKY/WX    TMP DP  RH WIND       PRES   REMARKS
SUPERIOR ARPT  CLOUDY    62  61  97 E3        29.80S
ASHLAND        RAIN      60  59  96 S6        29.86R FOG
HAYWARD        HVY RAIN  60  60 100 S6        29.87F VSB 1
SIREN          CLOUDY    63  61  96 SE9       29.83R
RICE LAKE      FOG       62  60  95 E6        29.86S VSB 1
LADYSMITH      CLOUDY    62  61  96 SE9       29.89S FOG
EAU CLAIRE     CLOUDY    66  65  96 S8        29.85R
MENOMONIE      CLOUDY    64  64  99 E6        29.85R FOG
NEW RICHMOND   CLOUDY    71  68  92 S9        29.82R
OSCEOLA        CLOUDY    71  70  98 S9        29.83S
$$

WIZ003>005-009-010-017-018-291600-
NORTH CENTRAL WISCONSIN

CITY           SKY/WX    TMP DP  RH WIND       PRES   REMARKS
WOODRUFF       CLOUDY    60  58  94 S8        29.91R
RHINELANDER    CLOUDY    60  59  96 S7        29.93R
EAGLE RIVER    CLOUDY    59  59 100 CALM      29.91R
LAND O LAKES   CLOUDY    60  59  97 SE8       29.92S
PHILLIPS       CLOUDY    60  59  98 SE8       29.89S
TOMAHAWK       CLOUDY    59  58  96 S3        29.92R FOG
MEDFORD        FOG       61  61 100 S7        29.90R VSB 1/4
MERRILL        CLOUDY    61  61 100 SE7       29.91R FOG
$$

WIZ029-030-035-036-043>047-291600-
CENTRAL WISCONSIN

CITY           SKY/WX    TMP DP  RH WIND       PRES   REMARKS
WAUSAU         CLOUDY    62  61  96 SE7       29.90R FOG
MOSINEE        FOG       63  63 100 S6        29.92R VSB 1/2
MARSHFIELD     FOG       65  64  97 S8        29.90R VSB 3/4
STEVENS POINT  CLOUDY    63  62  96 SE5       29.91S FOG
WAUPACA        CLOUDY    67  66  94 SE7       29.92F
WAUTOMA        NOT AVBL
WISC RAPIDS    CLOUDY    67  64  90 S7        29.92R
CAMP DOUGLAS   NOT AVBL
$$

WIZ011>013-019>022-031-037>040-048>050-291600-
NORTHEAST WISCONSIN

CITY           SKY/WX    TMP DP  RH WIND       PRES   REMARKS
ANTIGO         FOG       59  59 100 SE9       29.93S VSB 1/4
STURGEON BAY   CLOUDY    66  63  88 S14G21    29.95F
GREEN BAY      CLOUDY    70  68  93 S8        29.94F
MANITOWOC      NOT AVBL
APPLETON       PTSUNNY   70  66  88 S7        29.94F FOG
CLINTONVILLE   CLOUDY    64  63  94 SE8       29.92F
OSHKOSH        CLOUDY    73  68  84 S12       29.93S
$$

WIZ032>034-041-042-053>061-291600-
SOUTHWEST WISCONSIN

CITY           SKY/WX    TMP DP  RH WIND       PRES   REMARKS
LA CROSSE      CLOUDY    73  68  84 S13       29.84F
SPARTA         CLOUDY    71  67  85 S7        29.87F
VIROQUA        CLOUDY    69  69 100 S6        29.89S
BOSCOBEL       CLOUDY    75  68  78 S9        29.89S
PRAIRIE DU CHI CLOUDY    74  67  81 CALM      29.87S
PLATTEVILLE    CLOUDY    72  69  90 S10       29.92F
$$

WIZ056-057-062-063-064-067-068-291600-
SOUTH CENTRAL WISCONSIN

CITY           SKY/WX    TMP DP  RH WIND       PRES   REMARKS
BARABOO/DELLS  CLOUDY    70  66  86 S9        29.91F
LONE ROCK      NOT AVBL
WATERTOWN      MOSUNNY   75  69  82 S9        29.94F
MADISON        PTSUNNY   75  68  78 S15       29.92F
MIDDLETON      CLOUDY    74  69  86 S9        29.93S
MONROE         MOSUNNY   72  68  88 S15       29.94S
JANESVILLE     MOSUNNY   77  70  78 S12       29.94F
$$

WIZ051-052-058>065-066-070>072-291600-
SOUTHEAST WISCONSIN

CITY           SKY/WX    TMP DP  RH WIND       PRES   REMARKS
MILWAUKEE      LGT RAIN  71  67  87 S12       29.97S
WAUKESHA       MOSUNNY   70  66  88 S8        29.98S
MILWAUKEE/TIMM PTSUNNY   72  64  78 S7        29.97S
RACINE         LGT RAIN  71  67  87 S10       29.99F FOG
BURLINGTON     CLOUDY    71  68  90 S6        29.96F
KENOSHA        TSTM      70  68  93 S8        29.98F
FOND DU LAC    MOSUNNY   74  67  78 S12       29.93F
SHEBOYGAN      PTSUNNY   73  68  84 S9        29.95F
WEST BEND      MOSUNNY   73  64  73 S8        29.96S
JUNEAU         SUNNY     72  67  84 S12       29.95F
$$

LSZ147-162-291600-
LAKE SUPERIOR

STATION/POSITION TIME  TEMP    WIND        PRES    WAVE
                       AIR SEA DIR/SP/G            HT/PER
                 (UTC) (F)     (DEG/KT/KT) (MB)    (FT/S)
W MID LAKE BUOY  1350   59 57  140/ 10/ 12 1011.4F   1
DEVILS ISLAND    1400   61     130/  5/  6 1010.4F
PORT WING        1400   61        CALM     1009.8
SAXON HARBOR     1440   63      CALM  /  2 1010.8S
$$

LMZ867-665-643>646-291600-
LAKE MICHIGAN

STATION/POSITION TIME  TEMP    WIND        PRES    WAVE
                       AIR SEA DIR/SP/G            HT/PER
                 (UTC) (F)     (DEG/KT/KT) (MB)    (FT/S)
N MID LAKE BUOY  1350   61 65  150/ 17/ 21 1015.2F   2/ 3
NORTHPORT PIER   1400   63     140/ 15/ 19 1014.9F
SISTER BAY       1411   62     140/ 11/ 15   N/A
KEWAUNEE LAKESHO 1400   66     170/ 13/ 15 1013.7F
SHEBOYGAN LAKESH 1400   68 69  170/ 13/ 14 1014.5F
ATWATER BUOY     1430   70     160/ 16/ 17 1015.5F
MILWAUKEE LAKESH 1400   72     170/  8/ 11   N/A
S MID LAKE BUOY  1350   69 69  160/ 19/ 21 1015.3F   4/ 5
KENOSHA   LAKESH 1400   72     190/ 10/ 13 1015.2R
$$

TC  - TEMPERATURE IN CELSIUS
VSB - VISIBILITY IN STATUTE MILES
WCI - WIND CHILL INDEX
HX  - HEAT INDEX



USA.gov is the U.S. government's official web portal to all federal, state and local government web resources and services.